owner,sensor,date,latitude,longitude,vertical_datum,sea_water_practical_salinity,qcFlag 
SCCF RECON,ioos:station:SCCF:13:1,2019-07-02T14:00:00Z,26.5255,-82.0032,2.461,25.66,11111222 
SCCF RECON,ioos:station:SCCF:13:1,2019-07-02T17:00:00Z,26.5255,-82.0032,2.664,30.87,11111222 
SCCF RECON,ioos:station:SCCF:13:1,2019-07-02T18:00:00Z,26.5255,-82.0032,2.651,30.36,11111222 
SCCF RECON,ioos:station:SCCF:13:1,2019-07-02T19:00:00Z,26.5255,-82.0032,2.575,31.23,11111222 
SCCF RECON,ioos:station:SCCF:13:1,2019-07-02T20:00:00Z,26.5255,-82.0032,2.432,31.25,11111222 
SCCF RECON,ioos:station:SCCF:13:1,2019-07-02T21:00:00Z,26.5255,-82.0032,2.3,29.32,11111222 
SCCF RECON,ioos:station:SCCF:13:1,2019-07-02T22:00:00Z,26.5255,-82.0032,2.212,28.38,11111222 
SCCF RECON,ioos:station:SCCF:13:1,2019-07-02T23:00:00Z,26.5255,-82.0032,2.111,25.38,11111222 
SCCF RECON,ioos:station:SCCF:13:1,2019-07-03T04:00:00Z,26.5255,-82.0032,2.21,14.84,11111222 
SCCF RECON,ioos:station:SCCF:13:1,2019-07-03T05:00:00Z,26.5255,-82.0032,2.3,18.12,11111222 
SCCF RECON,ioos:station:SCCF:13:1,2019-07-03T06:00:00Z,26.5255,-82.0032,2.36,22.7,11111222 
SCCF RECON,ioos:station:SCCF:13:1,2019-07-03T07:00:00Z,26.5255,-82.0032,2.41,26.52,11111222 
SCCF RECON,ioos:station:SCCF:13:1,2019-07-03T08:00:00Z,26.5255,-82.0032,2.41,27.76,11111222 
SCCF RECON,ioos:station:SCCF:13:1,2019-07-03T09:00:00Z,26.5255,-82.0032,2.34,27.95,11111222 
SCCF RECON,ioos:station:SCCF:13:1,2019-07-03T10:00:00Z,26.5255,-82.0032,2.3,28.45,11111222 
SCCF RECON,ioos:station:SCCF:13:1,2019-07-03T11:00:00Z,26.5255,-82.0032,2.26,28.29,11111222 
SCCF RECON,ioos:station:SCCF:13:1,2019-07-03T12:00:00Z,26.5255,-82.0032,2.22,23.01,11111222 
SCCF RECON,ioos:station:SCCF:13:1,2019-07-03T13:00:00Z,26.5255,-82.0032,2.26,22.58,11111222 
SCCF RECON,ioos:station:SCCF:13:1,2019-07-03T14:00:00Z,26.5255,-82.0032,2.37,23.47,11111222 
SCCF RECON,ioos:station:SCCF:13:1,2019-07-03T15:00:00Z,26.5255,-82.0032,2.491,24.82,11111222 
SCCF RECON,ioos:station:SCCF:13:1,2019-07-03T16:00:00Z,26.5255,-82.0032,2.581,26.58,11111222 
SCCF RECON,ioos:station:SCCF:13:1,2019-07-03T17:00:00Z,26.5255,-82.0032,2.64,29.24,11111222 
SCCF RECON,ioos:station:SCCF:13:1,2019-07-03T18:00:00Z,26.5255,-82.0032,2.67,30.75,11111222 
SCCF RECON,ioos:station:SCCF:13:1,2019-07-03T19:00:00Z,26.5255,-82.0032,2.65,31.12,11111222 
SCCF RECON,ioos:station:SCCF:13:1,2019-07-03T20:00:00Z,26.5255,-82.0032,2.528,30.73,11111222 
SCCF RECON,ioos:station:SCCF:13:1,2019-07-03T21:00:00Z,26.5255,-82.0032,2.394,30.23,11111222 
SCCF RECON,ioos:station:SCCF:13:1,2019-07-03T22:00:00Z,26.5255,-82.0032,2.29,29.39,11111222 
SCCF RECON,ioos:station:SCCF:13:1,2019-07-03T23:00:00Z,26.5255,-82.0032,2.202,26.8,11111222 
SCCF RECON,ioos:station:SCCF:13:1,2019-07-04T04:00:00Z,26.5255,-82.0032,2.12,15.55,11111222 
SCCF RECON,ioos:station:SCCF:13:1,2019-07-04T05:00:00Z,26.5255,-82.0032,2.22,15.02,11111222 
SCCF RECON,ioos:station:SCCF:13:1,2019-07-04T06:00:00Z,26.5255,-82.0032,2.3,18.1,11111222 
SCCF RECON,ioos:station:SCCF:13:1,2019-07-04T07:00:00Z,26.5255,-82.0032,2.36,22.13,11111222 
SCCF RECON,ioos:station:SCCF:13:1,2019-07-04T08:00:00Z,26.5255,-82.0032,2.39,26.31,11111222 
SCCF RECON,ioos:station:SCCF:13:1,2019-07-04T09:00:00Z,26.5255,-82.0032,2.39,27.66,11111222 
SCCF RECON,ioos:station:SCCF:13:1,2019-07-04T10:00:00Z,26.5255,-82.0032,2.34,27.88,11111222 
SCCF RECON,ioos:station:SCCF:13:1,2019-07-04T11:00:00Z,26.5255,-82.0032,2.3,28.22,11111222 
SCCF RECON,ioos:station:SCCF:13:1,2019-07-04T12:00:00Z,26.5255,-82.0032,2.27,27.97,11111222 
SCCF RECON,ioos:station:SCCF:13:1,2019-07-04T13:00:00Z,26.5255,-82.0032,2.27,26.45,11111222 
SCCF RECON,ioos:station:SCCF:13:1,2019-07-04T14:00:00Z,26.5255,-82.0032,2.341,25.56,11111222 
SCCF RECON,ioos:station:SCCF:13:1,2019-07-04T15:00:00Z,26.5255,-82.0032,2.45,25.16,11111222 
SCCF RECON,ioos:station:SCCF:13:1,2019-07-04T16:00:00Z,26.5255,-82.0032,2.562,26.87,11111222 
SCCF RECON,ioos:station:SCCF:13:1,2019-07-04T17:00:00Z,26.5255,-82.0032,2.635,28.84,11111222 
SCCF RECON,ioos:station:SCCF:13:1,2019-07-04T18:00:00Z,26.5255,-82.0032,2.68,31.26,11111222 
SCCF RECON,ioos:station:SCCF:13:1,2019-07-04T19:00:00Z,26.5255,-82.0032,2.709,31.88,11111222 
SCCF RECON,ioos:station:SCCF:13:1,2019-07-04T20:00:00Z,26.5255,-82.0032,2.68,31.6,11111222 
SCCF RECON,ioos:station:SCCF:13:1,2019-07-04T21:00:00Z,26.5255,-82.0032,2.58,31.43,11111222 
SCCF RECON,ioos:station:SCCF:13:1,2019-07-04T22:00:00Z,26.5255,-82.0032,2.453,31.03,11111222 
SCCF RECON,ioos:station:SCCF:13:1,2019-07-04T23:00:00Z,26.5255,-82.0032,2.34,30.0,11111222 
SCCF RECON,ioos:station:SCCF:13:1,2019-07-05T04:00:00Z,26.5255,-82.0032,2.11,18.13,11111222 
SCCF RECON,ioos:station:SCCF:13:1,2019-07-05T05:00:00Z,26.5255,-82.0032,2.25,16.6,11111222 
SCCF RECON,ioos:station:SCCF:13:1,2019-07-05T06:00:00Z,26.5255,-82.0032,2.333,16.99,11111222 
SCCF RECON,ioos:station:SCCF:13:1,2019-07-05T07:00:00Z,26.5255,-82.0032,2.38,20.81,11111222 
SCCF RECON,ioos:station:SCCF:13:1,2019-07-05T08:00:00Z,26.5255,-82.0032,2.43,24.48,11111222 
SCCF RECON,ioos:station:SCCF:13:1,2019-07-05T09:00:00Z,26.5255,-82.0032,2.47,27.55,11111222 
SCCF RECON,ioos:station:SCCF:13:1,2019-07-05T10:00:00Z,26.5255,-82.0032,2.44,28.58,11111222 
SCCF RECON,ioos:station:SCCF:13:1,2019-07-05T11:00:00Z,26.5255,-82.0032,2.38,29.15,11111222 
SCCF RECON,ioos:station:SCCF:13:1,2019-07-05T12:00:00Z,26.5255,-82.0032,2.35,28.84,11111222 
SCCF RECON,ioos:station:SCCF:13:1,2019-07-05T13:00:00Z,26.5255,-82.0032,2.305,27.3,11111222 
SCCF RECON,ioos:station:SCCF:13:1,2019-07-05T14:00:00Z,26.5255,-82.0032,2.301,23.82,11111222 
SCCF RECON,ioos:station:SCCF:13:1,2019-07-05T15:00:00Z,26.5255,-82.0032,2.393,21.08,11111222 
SCCF RECON,ioos:station:SCCF:13:1,2019-07-05T16:00:00Z,26.5255,-82.0032,2.5,25.08,11111222 
SCCF RECON,ioos:station:SCCF:13:1,2019-07-05T17:00:00Z,26.5255,-82.0032,2.587,27.39,11111222 
SCCF RECON,ioos:station:SCCF:13:1,2019-07-05T18:00:00Z,26.5255,-82.0032,2.637,28.79,11111222 
SCCF RECON,ioos:station:SCCF:13:1,2019-07-05T19:00:00Z,26.5255,-82.0032,2.697,31.08,11111222 
SCCF RECON,ioos:station:SCCF:13:1,2019-07-05T20:00:00Z,26.5255,-82.0032,2.71,32.22,11111222 
SCCF RECON,ioos:station:SCCF:13:1,2019-07-05T21:00:00Z,26.5255,-82.0032,2.66,32.21,11111222 
SCCF RECON,ioos:station:SCCF:13:1,2019-07-05T22:00:00Z,26.5255,-82.0032,2.55,32.2,11111222 
SCCF RECON,ioos:station:SCCF:13:1,2019-07-05T23:00:00Z,26.5255,-82.0032,2.44,30.37,11111222 
SCCF RECON,ioos:station:SCCF:13:1,2019-07-06T04:00:00Z,26.5255,-82.0032,2.02,18.67,11111222 
SCCF RECON,ioos:station:SCCF:13:1,2019-07-06T05:00:00Z,26.5255,-82.0032,2.131,17.16,11111222 
SCCF RECON,ioos:station:SCCF:13:1,2019-07-06T06:00:00Z,26.5255,-82.0032,2.27,16.19,11111222 
SCCF RECON,ioos:station:SCCF:13:1,2019-07-06T07:00:00Z,26.5255,-82.0032,2.334,18.49,11111222 
SCCF RECON,ioos:station:SCCF:13:1,2019-07-06T08:00:00Z,26.5255,-82.0032,2.4,21.12,11111222 
SCCF RECON,ioos:station:SCCF:13:1,2019-07-06T09:00:00Z,26.5255,-82.0032,2.43,25.1,11111222 
SCCF RECON,ioos:station:SCCF:13:1,2019-07-06T10:00:00Z,26.5255,-82.0032,2.45,27.79,11111222 
SCCF RECON,ioos:station:SCCF:13:1,2019-07-06T11:00:00Z,26.5255,-82.0032,2.41,28.62,11111222 
SCCF RECON,ioos:station:SCCF:13:1,2019-07-06T12:00:00Z,26.5255,-82.0032,2.344,29.06,11111222 
SCCF RECON,ioos:station:SCCF:13:1,2019-07-06T13:00:00Z,26.5255,-82.0032,2.29,27.6,11111222 
SCCF RECON,ioos:station:SCCF:13:1,2019-07-06T14:00:00Z,26.5255,-82.0032,2.271,24.97,11111222 
SCCF RECON,ioos:station:SCCF:13:1,2019-07-06T15:00:00Z,26.5255,-82.0032,2.26,20.36,11111222 
SCCF RECON,ioos:station:SCCF:13:1,2019-07-06T16:00:00Z,26.5255,-82.0032,2.326,19.86,11111222 
SCCF RECON,ioos:station:SCCF:13:1,2019-07-06T17:00:00Z,26.5255,-82.0032,2.415,23.35,11111222 
SCCF RECON,ioos:station:SCCF:13:1,2019-07-06T18:00:00Z,26.5255,-82.0032,2.5,26.21,11111222 
SCCF RECON,ioos:station:SCCF:13:1,2019-07-06T19:00:00Z,26.5255,-82.0032,2.551,28.29,11111222 
SCCF RECON,ioos:station:SCCF:13:1,2019-07-06T20:00:00Z,26.5255,-82.0032,2.58,30.3,11111222 
SCCF RECON,ioos:station:SCCF:13:1,2019-07-06T21:00:00Z,26.5255,-82.0032,2.62,31.54,11111222 
SCCF RECON,ioos:station:SCCF:13:1,2019-07-06T22:00:00Z,26.5255,-82.0032,2.6,32.14,11111222 
SCCF RECON,ioos:station:SCCF:13:1,2019-07-06T23:00:00Z,26.5255,-82.0032,2.51,31.93,11111222 
SCCF RECON,ioos:station:SCCF:13:1,2019-07-07T04:00:00Z,26.5255,-82.0032,2.037,19.86,11111222 
SCCF RECON,ioos:station:SCCF:13:1,2019-07-07T05:00:00Z,26.5255,-82.0032,2.06,18.63,11111222 
SCCF RECON,ioos:station:SCCF:13:1,2019-07-07T06:00:00Z,26.5255,-82.0032,2.2,17.46,11111222 
SCCF RECON,ioos:station:SCCF:13:1,2019-07-07T07:00:00Z,26.5255,-82.0032,2.295,17.31,11111222 
SCCF RECON,ioos:station:SCCF:13:1,2019-07-07T08:00:00Z,26.5255,-82.0032,2.35,20.66,11111222 
SCCF RECON,ioos:station:SCCF:13:1,2019-07-07T09:00:00Z,26.5255,-82.0032,2.415,24.55,11111222 
SCCF RECON,ioos:station:SCCF:13:1,2019-07-07T10:00:00Z,26.5255,-82.0032,2.469,26.87,11111222 
SCCF RECON,ioos:station:SCCF:13:1,2019-07-07T11:00:00Z,26.5255,-82.0032,2.473,29.32,11111222 
SCCF RECON,ioos:station:SCCF:13:1,2019-07-07T12:00:00Z,26.5255,-82.0032,2.4,29.81,11111222 
SCCF RECON,ioos:station:SCCF:13:1,2019-07-07T13:00:00Z,26.5255,-82.0032,2.349,29.98,11111222 
SCCF RECON,ioos:station:SCCF:13:1,2019-07-07T14:00:00Z,26.5255,-82.0032,2.29,27.6,11111222 
SCCF RECON,ioos:station:SCCF:13:1,2019-07-07T15:00:00Z,26.5255,-82.0032,2.25,24.05,11111222 
SCCF RECON,ioos:station:SCCF:13:1,2019-07-07T16:00:00Z,26.5255,-82.0032,2.248,20.4,11111222 
SCCF RECON,ioos:station:SCCF:13:1,2019-07-07T17:00:00Z,26.5255,-82.0032,2.279,19.0,11111222 
SCCF RECON,ioos:station:SCCF:13:1,2019-07-07T18:00:00Z,26.5255,-82.0032,2.38,20.21,11111222 
SCCF RECON,ioos:station:SCCF:13:1,2019-07-07T19:00:00Z,26.5255,-82.0032,2.47,25.49,11111222 
SCCF RECON,ioos:station:SCCF:13:1,2019-07-07T20:00:00Z,26.5255,-82.0032,2.5,26.83,11111222 
SCCF RECON,ioos:station:SCCF:13:1,2019-07-07T21:00:00Z,26.5255,-82.0032,2.51,28.72,11111222 
SCCF RECON,ioos:station:SCCF:13:1,2019-07-07T22:00:00Z,26.5255,-82.0032,2.52,29.85,11111222 
SCCF RECON,ioos:station:SCCF:13:1,2019-07-07T23:00:00Z,26.5255,-82.0032,2.505,30.11,11111222 
SCCF RECON,ioos:station:SCCF:13:1,2019-07-08T04:00:00Z,26.5255,-82.0032,2.11,20.02,11111222 
SCCF RECON,ioos:station:SCCF:13:1,2019-07-08T05:00:00Z,26.5255,-82.0032,2.04,18.67,11111222 
SCCF RECON,ioos:station:SCCF:13:1,2019-07-08T06:00:00Z,26.5255,-82.0032,2.08,18.13,11111222 
SCCF RECON,ioos:station:SCCF:13:1,2019-07-08T07:00:00Z,26.5255,-82.0032,2.21,16.84,11111222 
SCCF RECON,ioos:station:SCCF:13:1,2019-07-08T08:00:00Z,26.5255,-82.0032,2.31,18.81,11111222 
SCCF RECON,ioos:station:SCCF:13:1,2019-07-08T09:00:00Z,26.5255,-82.0032,2.359,21.91,11111222 
SCCF RECON,ioos:station:SCCF:13:1,2019-07-08T10:00:00Z,26.5255,-82.0032,2.41,25.19,11111222 
SCCF RECON,ioos:station:SCCF:13:1,2019-07-08T11:00:00Z,26.5255,-82.0032,2.44,27.43,11111222 
SCCF RECON,ioos:station:SCCF:13:1,2019-07-08T12:00:00Z,26.5255,-82.0032,2.452,29.31,11111222 
SCCF RECON,ioos:station:SCCF:13:1,2019-07-08T13:00:00Z,26.5255,-82.0032,2.38,29.57,11111222 
SCCF RECON,ioos:station:SCCF:13:1,2019-07-08T14:00:00Z,26.5255,-82.0032,2.32,28.33,11111222 
SCCF RECON,ioos:station:SCCF:13:1,2019-07-08T15:00:00Z,26.5255,-82.0032,2.269,27.02,11111222 
SCCF RECON,ioos:station:SCCF:13:1,2019-07-08T16:00:00Z,26.5255,-82.0032,2.212,22.33,11111222 
SCCF RECON,ioos:station:SCCF:13:1,2019-07-08T17:00:00Z,26.5255,-82.0032,2.147,18.4,11111222 
SCCF RECON,ioos:station:SCCF:13:1,2019-07-08T18:00:00Z,26.5255,-82.0032,2.15,17.75,11111222 
SCCF RECON,ioos:station:SCCF:13:1,2019-07-08T19:00:00Z,26.5255,-82.0032,2.229,17.75,11111222 
SCCF RECON,ioos:station:SCCF:13:1,2019-07-08T20:00:00Z,26.5255,-82.0032,2.31,19.96,11111222 
SCCF RECON,ioos:station:SCCF:13:1,2019-07-08T21:00:00Z,26.5255,-82.0032,2.367,22.4,11111222 
SCCF RECON,ioos:station:SCCF:13:1,2019-07-08T22:00:00Z,26.5255,-82.0032,2.393,24.53,11111222 
SCCF RECON,ioos:station:SCCF:13:1,2019-07-08T23:00:00Z,26.5255,-82.0032,2.44,26.52,11111222 
SCCF RECON,ioos:station:SCCF:13:1,2019-07-09T04:00:00Z,26.5255,-82.0032,2.15,21.34,11111222 
SCCF RECON,ioos:station:SCCF:13:1,2019-07-09T05:00:00Z,26.5255,-82.0032,2.1,19.47,11111222 
SCCF RECON,ioos:station:SCCF:13:1,2019-07-09T06:00:00Z,26.5255,-82.0032,2.07,18.39,11111222 
SCCF RECON,ioos:station:SCCF:13:1,2019-07-09T07:00:00Z,26.5255,-82.0032,2.14,16.55,11111222 
SCCF RECON,ioos:station:SCCF:13:1,2019-07-09T08:00:00Z,26.5255,-82.0032,2.28,17.43,11111222 
SCCF RECON,ioos:station:SCCF:13:1,2019-07-09T09:00:00Z,26.5255,-82.0032,2.36,21.64,11111222 
SCCF RECON,ioos:station:SCCF:13:1,2019-07-09T10:00:00Z,26.5255,-82.0032,2.43,24.28,11111222 
SCCF RECON,ioos:station:SCCF:13:1,2019-07-09T11:00:00Z,26.5255,-82.0032,2.5,27.25,11111222 
SCCF RECON,ioos:station:SCCF:13:1,2019-07-09T12:00:00Z,26.5255,-82.0032,2.53,29.1,11111222 
SCCF RECON,ioos:station:SCCF:13:1,2019-07-09T13:00:00Z,26.5255,-82.0032,2.51,30.08,11111222 
SCCF RECON,ioos:station:SCCF:13:1,2019-07-09T14:00:00Z,26.5255,-82.0032,2.48,29.95,11111222 
SCCF RECON,ioos:station:SCCF:13:1,2019-07-09T15:00:00Z,26.5255,-82.0032,2.475,30.52,11111222 
SCCF RECON,ioos:station:SCCF:13:1,2019-07-09T16:00:00Z,26.5255,-82.0032,2.36,29.55,11111222 
SCCF RECON,ioos:station:SCCF:13:1,2019-07-09T17:00:00Z,26.5255,-82.0032,2.249,25.73,11111222 
SCCF RECON,ioos:station:SCCF:13:1,2019-07-09T18:00:00Z,26.5255,-82.0032,2.225,23.95,11111222 
SCCF RECON,ioos:station:SCCF:13:1,2019-07-09T19:00:00Z,26.5255,-82.0032,2.192,21.45,11111222 
SCCF RECON,ioos:station:SCCF:13:1,2019-07-09T20:00:00Z,26.5255,-82.0032,2.223,20.51,11111222 
SCCF RECON,ioos:station:SCCF:13:1,2019-07-09T21:00:00Z,26.5255,-82.0032,2.31,20.57,11111222 
SCCF RECON,ioos:station:SCCF:13:1,2019-07-09T22:00:00Z,26.5255,-82.0032,2.38,20.85,11111222 
SCCF RECON,ioos:station:SCCF:13:1,2019-07-09T23:00:00Z,26.5255,-82.0032,2.41,23.11,11111222 
SCCF RECON,ioos:station:SCCF:13:1,2019-07-10T04:00:00Z,26.5255,-82.0032,2.26,21.56,11111222 
SCCF RECON,ioos:station:SCCF:13:1,2019-07-10T05:00:00Z,26.5255,-82.0032,2.19,19.4,11111222 
SCCF RECON,ioos:station:SCCF:13:1,2019-07-10T06:00:00Z,26.5255,-82.0032,2.13,18.47,11111222 
SCCF RECON,ioos:station:SCCF:13:1,2019-07-10T07:00:00Z,26.5255,-82.0032,2.111,16.53,11111222 
SCCF RECON,ioos:station:SCCF:13:1,2019-07-10T08:00:00Z,26.5255,-82.0032,2.2,15.35,11111222 
SCCF RECON,ioos:station:SCCF:13:1,2019-07-10T09:00:00Z,26.5255,-82.0032,2.313,16.29,11111222 
SCCF RECON,ioos:station:SCCF:13:1,2019-07-10T10:00:00Z,26.5255,-82.0032,2.4,20.35,11111222 
SCCF RECON,ioos:station:SCCF:13:1,2019-07-10T11:00:00Z,26.5255,-82.0032,2.47,23.35,11111222 
SCCF RECON,ioos:station:SCCF:13:1,2019-07-10T12:00:00Z,26.5255,-82.0032,2.544,26.62,11111222 
SCCF RECON,ioos:station:SCCF:13:1,2019-07-10T13:00:00Z,26.5255,-82.0032,2.56,28.95,11111222 
SCCF RECON,ioos:station:SCCF:13:1,2019-07-10T14:00:00Z,26.5255,-82.0032,2.51,29.71,11111222 
SCCF RECON,ioos:station:SCCF:13:1,2019-07-10T15:00:00Z,26.5255,-82.0032,2.442,30.23,11111222 
SCCF RECON,ioos:station:SCCF:13:1,2019-07-10T16:00:00Z,26.5255,-82.0032,2.368,29.84,11111222 
SCCF RECON,ioos:station:SCCF:13:1,2019-07-10T17:00:00Z,26.5255,-82.0032,2.271,24.47,11111222 
SCCF RECON,ioos:station:SCCF:13:1,2019-07-10T18:00:00Z,26.5255,-82.0032,2.19,20.61,11111222 
SCCF RECON,ioos:station:SCCF:13:1,2019-07-10T19:00:00Z,26.5255,-82.0032,2.122,19.86,11111222 
SCCF RECON,ioos:station:SCCF:13:1,2019-07-10T20:00:00Z,26.5255,-82.0032,2.089,18.06,11111222 
SCCF RECON,ioos:station:SCCF:13:1,2019-07-10T21:00:00Z,26.5255,-82.0032,2.12,16.47,11111222 
SCCF RECON,ioos:station:SCCF:13:1,2019-07-10T22:00:00Z,26.5255,-82.0032,2.19,15.6,11111222 
SCCF RECON,ioos:station:SCCF:13:1,2019-07-10T23:00:00Z,26.5255,-82.0032,2.26,16.59,11111222 
SCCF RECON,ioos:station:SCCF:13:1,2019-07-11T04:00:00Z,26.5255,-82.0032,2.37,26.39,11111222 
SCCF RECON,ioos:station:SCCF:13:1,2019-07-11T05:00:00Z,26.5255,-82.0032,2.3,25.28,11111222 
SCCF RECON,ioos:station:SCCF:13:1,2019-07-11T06:00:00Z,26.5255,-82.0032,2.24,22.67,11111222 
SCCF RECON,ioos:station:SCCF:13:1,2019-07-11T07:00:00Z,26.5255,-82.0032,2.192,17.8,11111222 
SCCF RECON,ioos:station:SCCF:13:1,2019-07-11T08:00:00Z,26.5255,-82.0032,2.19,16.39,11111222 
SCCF RECON,ioos:station:SCCF:13:1,2019-07-11T09:00:00Z,26.5255,-82.0032,2.27,15.89,11111222 
SCCF RECON,ioos:station:SCCF:13:1,2019-07-11T10:00:00Z,26.5255,-82.0032,2.4,22.33,11111222 
SCCF RECON,ioos:station:SCCF:13:1,2019-07-11T11:00:00Z,26.5255,-82.0032,2.484,23.52,11111222 
SCCF RECON,ioos:station:SCCF:13:1,2019-07-11T12:00:00Z,26.5255,-82.0032,2.57,28.11,11111222 
SCCF RECON,ioos:station:SCCF:13:1,2019-07-11T13:00:00Z,26.5255,-82.0032,2.59,30.11,11111222 
SCCF RECON,ioos:station:SCCF:13:1,2019-07-11T14:00:00Z,26.5255,-82.0032,2.61,30.9,11111222 
SCCF RECON,ioos:station:SCCF:13:1,2019-07-11T15:00:00Z,26.5255,-82.0032,2.609,30.98,11111222 
SCCF RECON,ioos:station:SCCF:13:1,2019-07-11T16:00:00Z,26.5255,-82.0032,2.54,30.87,11111222 
SCCF RECON,ioos:station:SCCF:13:1,2019-07-11T17:00:00Z,26.5255,-82.0032,2.44,30.7,11111222 
SCCF RECON,ioos:station:SCCF:13:1,2019-07-11T18:00:00Z,26.5255,-82.0032,2.37,29.17,11111222 
SCCF RECON,ioos:station:SCCF:13:1,2019-07-11T19:00:00Z,26.5255,-82.0032,2.298,25.58,11111222 
SCCF RECON,ioos:station:SCCF:13:1,2019-07-11T20:00:00Z,26.5255,-82.0032,2.226,24.75,11111222 
SCCF RECON,ioos:station:SCCF:13:1,2019-07-11T21:00:00Z,26.5255,-82.0032,2.18,21.35,11111222 
SCCF RECON,ioos:station:SCCF:13:1,2019-07-11T22:00:00Z,26.5255,-82.0032,2.1,18.96,11111222 
SCCF RECON,ioos:station:SCCF:13:1,2019-07-11T23:00:00Z,26.5255,-82.0032,2.173,18.35,11111222 
SCCF RECON,ioos:station:SCCF:13:1,2019-07-12T04:00:00Z,26.5255,-82.0032,2.42,26.18,11111222 
SCCF RECON,ioos:station:SCCF:13:1,2019-07-12T05:00:00Z,26.5255,-82.0032,2.491,27.67,11111222 
SCCF RECON,ioos:station:SCCF:13:1,2019-07-12T06:00:00Z,26.5255,-82.0032,2.51,29.26,11111222 
SCCF RECON,ioos:station:SCCF:13:1,2019-07-12T07:00:00Z,26.5255,-82.0032,2.411,30.2,11111222 
SCCF RECON,ioos:station:SCCF:13:1,2019-07-12T08:00:00Z,26.5255,-82.0032,2.33,28.5,11111222 
SCCF RECON,ioos:station:SCCF:13:1,2019-07-12T09:00:00Z,26.5255,-82.0032,2.37,26.84,11111222 
SCCF RECON,ioos:station:SCCF:13:1,2019-07-12T10:00:00Z,26.5255,-82.0032,2.439,24.08,11111222 
SCCF RECON,ioos:station:SCCF:13:1,2019-07-12T11:00:00Z,26.5255,-82.0032,2.5,27.31,11111222 
SCCF RECON,ioos:station:SCCF:13:1,2019-07-12T12:00:00Z,26.5255,-82.0032,2.55,28.44,11111222 
SCCF RECON,ioos:station:SCCF:13:1,2019-07-12T13:00:00Z,26.5255,-82.0032,2.601,29.99,11111222 
SCCF RECON,ioos:station:SCCF:13:1,2019-07-12T14:00:00Z,26.5255,-82.0032,2.63,30.83,11111222 
SCCF RECON,ioos:station:SCCF:13:1,2019-07-12T15:00:00Z,26.5255,-82.0032,2.63,31.35,11111222 
SCCF RECON,ioos:station:SCCF:13:1,2019-07-12T16:00:00Z,26.5255,-82.0032,2.55,31.75,11111222 
SCCF RECON,ioos:station:SCCF:13:1,2019-07-12T17:00:00Z,26.5255,-82.0032,2.43,30.62,11111222 
SCCF RECON,ioos:station:SCCF:13:1,2019-07-12T18:00:00Z,26.5255,-82.0032,2.34,22.62,11111222 
SCCF RECON,ioos:station:SCCF:13:1,2019-07-12T19:00:00Z,26.5255,-82.0032,2.26,20.27,11111222 
SCCF RECON,ioos:station:SCCF:13:1,2019-07-12T20:00:00Z,26.5255,-82.0032,2.17,17.34,11111222 
SCCF RECON,ioos:station:SCCF:13:1,2019-07-12T21:00:00Z,26.5255,-82.0032,2.084,15.97,11111222 
SCCF RECON,ioos:station:SCCF:13:1,2019-07-12T22:00:00Z,26.5255,-82.0032,2.04,15.4,11111222 
SCCF RECON,ioos:station:SCCF:13:1,2019-07-12T23:00:00Z,26.5255,-82.0032,2.051,14.74,11111222 
SCCF RECON,ioos:station:SCCF:13:1,2019-07-13T04:00:00Z,26.5255,-82.0032,2.37,21.41,11111222 
SCCF RECON,ioos:station:SCCF:13:1,2019-07-13T05:00:00Z,26.5255,-82.0032,2.36,23.74,11111222 
SCCF RECON,ioos:station:SCCF:13:1,2019-07-13T06:00:00Z,26.5255,-82.0032,2.33,26.28,11111222 
SCCF RECON,ioos:station:SCCF:13:1,2019-07-13T07:00:00Z,26.5255,-82.0032,2.29,26.54,11111222 
SCCF RECON,ioos:station:SCCF:13:1,2019-07-13T08:00:00Z,26.5255,-82.0032,2.26,23.11,11111222 
SCCF RECON,ioos:station:SCCF:13:1,2019-07-13T09:00:00Z,26.5255,-82.0032,2.23,20.86,11111222 
SCCF RECON,ioos:station:SCCF:13:1,2019-07-13T10:00:00Z,26.5255,-82.0032,2.27,18.4,11111222 
SCCF RECON,ioos:station:SCCF:13:1,2019-07-13T11:00:00Z,26.5255,-82.0032,2.34,27.47,11111222 
SCCF RECON,ioos:station:SCCF:13:1,2019-07-13T12:00:00Z,26.5255,-82.0032,2.42,25.43,11111222 
SCCF RECON,ioos:station:SCCF:13:1,2019-07-13T13:00:00Z,26.5255,-82.0032,2.49,26.56,11111222 
SCCF RECON,ioos:station:SCCF:13:1,2019-07-13T14:00:00Z,26.5255,-82.0032,2.547,29.59,11111222 
SCCF RECON,ioos:station:SCCF:13:1,2019-07-13T15:00:00Z,26.5255,-82.0032,2.595,30.61,11111222 
SCCF RECON,ioos:station:SCCF:13:1,2019-07-13T16:00:00Z,26.5255,-82.0032,2.58,31.17,11111222 
SCCF RECON,ioos:station:SCCF:13:1,2019-07-13T17:00:00Z,26.5255,-82.0032,2.53,31.7,11111222 
SCCF RECON,ioos:station:SCCF:13:1,2019-07-13T18:00:00Z,26.5255,-82.0032,2.422,31.56,11111222 
SCCF RECON,ioos:station:SCCF:13:1,2019-07-13T19:00:00Z,26.5255,-82.0032,2.3,27.0,11111222 
SCCF RECON,ioos:station:SCCF:13:1,2019-07-13T20:00:00Z,26.5255,-82.0032,2.188,17.42,11111222 
SCCF RECON,ioos:station:SCCF:13:1,2019-07-13T21:00:00Z,26.5255,-82.0032,2.094,15.94,11111222 
SCCF RECON,ioos:station:SCCF:13:1,2019-07-15T15:00:00Z,26.5255,-82.0032,2.561,27.21,11111222 
SCCF RECON,ioos:station:SCCF:13:1,2019-07-15T16:00:00Z,26.5255,-82.0032,2.6,28.72,11111222 
SCCF RECON,ioos:station:SCCF:13:1,2019-07-15T17:00:00Z,26.5255,-82.0032,2.61,30.04,11111222 
SCCF RECON,ioos:station:SCCF:13:1,2019-07-15T18:00:00Z,26.5255,-82.0032,2.567,30.5,11111222 
SCCF RECON,ioos:station:SCCF:13:1,2019-07-15T19:00:00Z,26.5255,-82.0032,2.476,30.7,11111222 
SCCF RECON,ioos:station:SCCF:13:1,2019-07-15T20:00:00Z,26.5255,-82.0032,2.344,29.09,11111222 
SCCF RECON,ioos:station:SCCF:13:1,2019-07-15T21:00:00Z,26.5255,-82.0032,2.229,21.81,11111222 
SCCF RECON,ioos:station:SCCF:13:1,2019-07-15T22:00:00Z,26.5255,-82.0032,2.132,18.83,11111222 
SCCF RECON,ioos:station:SCCF:13:1,2019-07-15T23:00:00Z,26.5255,-82.0032,2.05,17.14,11111222 
SCCF RECON,ioos:station:SCCF:13:1,2019-07-16T04:00:00Z,26.5255,-82.0032,2.22,12.67,11111222 
SCCF RECON,ioos:station:SCCF:13:1,2019-07-16T05:00:00Z,26.5255,-82.0032,2.28,15.97,11111222 
SCCF RECON,ioos:station:SCCF:13:1,2019-07-16T06:00:00Z,26.5255,-82.0032,2.339,19.43,11111222 
SCCF RECON,ioos:station:SCCF:13:1,2019-07-16T07:00:00Z,26.5255,-82.0032,2.35,23.0,11111222 
SCCF RECON,ioos:station:SCCF:13:1,2019-07-16T08:00:00Z,26.5255,-82.0032,2.31,26.18,11111222 
SCCF RECON,ioos:station:SCCF:13:1,2019-07-16T09:00:00Z,26.5255,-82.0032,2.29,27.23,11111222 
SCCF RECON,ioos:station:SCCF:13:1,2019-07-16T10:00:00Z,26.5255,-82.0032,2.27,27.58,11111222 
SCCF RECON,ioos:station:SCCF:13:1,2019-07-16T11:00:00Z,26.5255,-82.0032,2.23,25.96,11111222 
SCCF RECON,ioos:station:SCCF:13:1,2019-07-16T12:00:00Z,26.5255,-82.0032,2.22,24.17,11111222 
SCCF RECON,ioos:station:SCCF:13:1,2019-07-16T13:00:00Z,26.5255,-82.0032,2.28,21.58,11111222 
SCCF RECON,ioos:station:SCCF:13:1,2019-07-16T14:00:00Z,26.5255,-82.0032,2.39,24.5,11111222 
SCCF RECON,ioos:station:SCCF:13:1,2019-07-16T15:00:00Z,26.5255,-82.0032,2.481,24.9,11111222 
SCCF RECON,ioos:station:SCCF:13:1,2019-07-16T16:00:00Z,26.5255,-82.0032,2.552,26.77,11111222 
SCCF RECON,ioos:station:SCCF:13:1,2019-07-16T17:00:00Z,26.5255,-82.0032,2.61,28.71,11111222 
SCCF RECON,ioos:station:SCCF:13:1,2019-07-16T18:00:00Z,26.5255,-82.0032,2.63,29.87,11111222 
SCCF RECON,ioos:station:SCCF:13:1,2019-07-16T19:00:00Z,26.5255,-82.0032,2.57,29.67,11111222 
SCCF RECON,ioos:station:SCCF:13:1,2019-07-16T20:00:00Z,26.5255,-82.0032,2.47,29.63,11111222 
SCCF RECON,ioos:station:SCCF:13:1,2019-07-16T21:00:00Z,26.5255,-82.0032,2.33,27.71,11111222 
SCCF RECON,ioos:station:SCCF:13:1,2019-07-16T22:00:00Z,26.5255,-82.0032,2.225,24.1,11111222 
SCCF RECON,ioos:station:SCCF:13:1,2019-07-16T23:00:00Z,26.5255,-82.0032,2.151,20.71,11111222 
SCCF RECON,ioos:station:SCCF:13:1,2019-07-17T04:00:00Z,26.5255,-82.0032,2.23,12.46,11111222 